NUSAT-4 (ADA) (43195 NORAD) Tracking and Keplerian Element Data

This shows tracking and keplerian element data for the satellite.

Feedback or suggestion? Click here.




ElementValue
Catalog43195
NameNUSAT-4 (ADA)
Epoch Orbit25880
Epoch Day270.17431809
Epoch Year2022
RAAN52.9569
Inclination97.5478
Eccentricity0.0014894
Argument of Perigee49.9712
Mean Anonmoly2.4495
Mean Motion15.32518029
Decay Rate0.00012874
L11 43195U 18015D 22270.17431809 .00012874 00000+0 41096-3 0 9997
L22 43195 97.5478 52.9569 0014894 49.9712 2.4495 15.32518029258801

Live tracking and technical data element details for NUSAT-4 (ADA) (NORAD 43195). NUSAT-4 (ADA) can be tracked NOW for your location showing map with azimuth and elevation plus other details from your city location.

Track the satellite on the map from your city or location and see movement details for azimuth, elevation, latitude, longitude, range, height, and movement on the map or in text.







IsCatalogInMostPopularTable: catalog: 43195, numindb: 652
Update: records affected: 1



GetName: 43195 NUSAT-4 (ADA)

Hit Count: updated at: Fri, 30 Sep 2022 02:56:17 GMT